| time (UTC) | temp F | wind direction | speed knots | gust knots | rain 1hr in | rain 24hr in | rain mn in | humidity % | barometer mb |
| 20260502213742 | 48 | 26 | 0.0 | 0.9 | 0.05 | 0.08 | 0.08 | 93 | 1012.0 |
| 20260502213239 | 48 | 22 | 0.0 | 0.0 | 0.05 | 0.08 | 0.08 | 92 | 1012.4 |
| 20260502212738 | 48 | 22 | 0.0 | 0.9 | 0.07 | 0.07 | 0.07 | 92 | 1012.2 |
| 20260502212236 | 48 | 18 | 0.0 | 0.9 | 0.12 | 0.07 | 0.07 | 92 | 1012.3 |
| 20260502211731 | 47 | 16 | 0.0 | 1.7 | 0.12 | 0.06 | 0.06 | 92 | 1012.2 |
| 20260502211229 | 47 | 14 | 0.0 | 0.9 | 0.07 | 0.05 | 0.05 | 91 | 1012.3 |
| 20260502210725 | 47 | 358 | 1.7 | 3.5 | 0.00 | 0.04 | 0.04 | 91 | 1012.3 |
| 20260502210223 | 48 | 4 | 1.7 | 1.7 | 0.05 | 0.04 | 0.04 | 90 | 1012.3 |
| 20260502205720 | 48 | 1 | 2.6 | 2.6 | 0.12 | 0.04 | 0.04 | 90 | 1012.2 |
| 20260502205216 | 48 | 0 | 0.0 | 0.9 | 0.07 | 0.03 | 0.03 | 88 | 1012.4 |
| 20260502204713 | 48 | 323 | 1.7 | 3.5 | 0.05 | 0.02 | 0.02 | 86 | 1012.2 |
| 20260502204211 | 50 | 346 | 1.7 | 7.0 | 0.05 | 0.02 | 0.02 | 82 | 1012.2 |
| 20260502203708 | 51 | 296 | 4.3 | 6.1 | 0.00 | 0.01 | 0.01 | 78 | 1012.1 |
| 20260502203206 | 52 | 129 | 3.5 | 5.2 | 0.00 | 0.01 | 0.01 | 75 | 1011.7 |
| 20260502202700 | 52 | 128 | 4.3 | 5.2 | 0.00 | 0.01 | 0.01 | 74 | 1011.9 |
| 20260502202159 | 52 | 134 | 5.2 | 8.7 | 0.00 | 0.01 | 0.01 | 74 | 1012.0 |
| 20260502201656 | 53 | 139 | 5.2 | 7.0 | 0.00 | 0.01 | 0.01 | 73 | 1011.8 |
| 20260502201152 | 52 | 95 | 5.2 | 8.7 | 0.00 | 0.01 | 0.01 | 73 | 1011.9 |
| 20260502200647 | 52 | 133 | 5.2 | 7.8 | 0.00 | 0.01 | 0.01 | 73 | 1012.0 |
| 20260502200144 | 53 | 110 | 7.0 | 7.8 | 0.00 | 0.01 | 0.01 | 71 | 1011.9 |
| 20260502195643 | 54 | 80 | 2.6 | 3.5 | 0.00 | 0.01 | 0.01 | 70 | 1012.0 |
| 20260502195139 | 54 | 25 | 0.9 | 6.1 | 0.00 | 0.01 | 0.01 | 70 | 1011.9 |
| 20260502194636 | 54 | 128 | 5.2 | 8.7 | 0.00 | 0.01 | 0.01 | 68 | 1011.9 |
| 20260502194133 | 54 | 46 | 2.6 | 6.1 | 0.00 | 0.01 | 0.01 | 69 | 1011.7 |
| 20260502193629 | 53 | 202 | 3.5 | 9.6 | 0.00 | 0.01 | 0.01 | 70 | 1011.9 |
| 20260502193126 | 52 | 104 | 2.6 | 6.1 | 0.00 | 0.01 | 0.01 | 72 | 1012.2 |
| 20260502192621 | 52 | 12 | 2.6 | 9.6 | 0.00 | 0.01 | 0.01 | 71 | 1012.5 |
| 20260502192119 | 52 | 114 | 5.2 | 9.6 | 0.00 | 0.01 | 0.01 | 69 | 1012.8 |
| 20260502191616 | 53 | 125 | 3.5 | 8.7 | 0.00 | 0.01 | 0.01 | 70 | 1012.6 |
| 20260502191113 | 53 | 197 | 9.6 | 12.2 | 0.00 | 0.01 | 0.01 | 67 | 1012.8 |
| 20260502190611 | 54 | 138 | 8.7 | 12.2 | 0.00 | 0.01 | 0.01 | 65 | 1012.5 |
| 20260502190108 | 52 | 137 | 8.7 | 11.3 | 0.00 | 0.01 | 0.01 | 68 | 1012.6 |
| 20260502185602 | 53 | 122 | 7.0 | 12.2 | 0.00 | 0.01 | 0.01 | 68 | 1012.6 |
| 20260502185100 | 53 | 184 | 7.8 | 8.7 | 0.00 | 0.01 | 0.01 | 68 | 1013.0 |
| 20260502184556 | 53 | 101 | 2.6 | 6.1 | 0.00 | 0.01 | 0.01 | 71 | 1012.6 |
| 20260502184051 | 54 | 130 | 4.3 | 11.3 | 0.00 | 0.01 | 0.01 | 70 | 1012.8 |
| 20260502183548 | 53 | 134 | 4.3 | 8.7 | 0.00 | 0.01 | 0.01 | 72 | 1012.6 |
| 20260502183044 | 52 | 134 | 7.0 | 9.6 | 0.00 | 0.01 | 0.01 | 71 | 1013.1 |
| 20260502182539 | 52 | 105 | 4.3 | 8.7 | 0.00 | 0.01 | 0.01 | 71 | 1013.0 |
| 20260502182036 | 52 | 133 | 10.4 | 12.2 | 0.00 | 0.01 | 0.01 | 70 | 1012.9 |
| 20260502181534 | 51 | 146 | 2.6 | 12.2 | 0.00 | 0.01 | 0.01 | 70 | 1013.0 |
| 20260502181032 | 51 | 68 | 5.2 | 7.8 | 0.00 | 0.01 | 0.01 | 70 | 1012.6 |
| 20260502180529 | 51 | 139 | 5.2 | 11.3 | 0.00 | 0.01 | 0.01 | 68 | 1013.3 |
| 20260502170454 | 50 | 38 | 2.6 | 6.1 | 0.00 | 0.01 | 0.01 | 70 | 1013.2 |
| 20260502163937 | 51 | 80 | 2.6 | 6.1 | 0.00 | 0.01 | 0.01 | 82 | 1013.5 |
| 20260502163433 | 50 | 28 | 1.7 | 3.5 | 0.00 | 0.01 | 0.01 | 83 | 1013.5 |
| 20260502162931 | 50 | 37 | 0.9 | 2.6 | 0.00 | 0.01 | 0.01 | 84 | 1013.4 |
| 20260502162428 | 50 | 44 | 0.9 | 2.6 | 0.00 | 0.01 | 0.01 | 84 | 1013.5 |
| 20260502161925 | 50 | 68 | 0.0 | 2.6 | 0.00 | 0.01 | 0.01 | 84 | 1013.5 |
| 20260502161420 | 50 | 53 | 0.0 | 2.6 | 0.07 | 0.01 | 0.01 | 83 | 1013.6 |
| 20260502160919 | 50 | 54 | 0.9 | 1.7 | 0.07 | 0.01 | 0.01 | 83 | 1013.6 |
| 20260502160417 | 50 | 22 | 0.0 | 0.9 | 0.00 | 0.00 | 0.00 | 81 | 1013.6 |
| 20260502151855 | 50 | 128 | 7.0 | 7.8 | 0.00 | 0.00 | 0.00 | 70 | 1013.7 |
| 20260502151351 | 50 | 154 | 4.3 | 7.0 | 0.00 | 0.00 | 0.00 | 67 | 1013.7 |
| 20260502150849 | 51 | 133 | 4.3 | 13.9 | 0.00 | 0.00 | 0.00 | 64 | 1013.6 |
| 20260502150345 | 51 | 341 | 2.6 | 3.5 | 0.00 | 0.00 | 0.00 | 72 | 1013.6 |
| 20260502130733 | 49 | 33 | 0.9 | 0.9 | 0.00 | 0.00 | 0.00 | 86 | 1014.2 |
| 20260502130231 | 48 | 17 | 0.0 | 0.0 | 0.00 | 0.00 | 0.00 | 87 | 1014.5 |
| 20260502123717 | 47 | 17 | 0.9 | 2.6 | 0.00 | 0.00 | 0.00 | 86 | 1014.5 |
| 20260502123214 | 48 | 355 | 2.6 | 7.0 | 0.00 | 0.00 | 0.00 | 85 | 1014.1 |
| 20260502122710 | 48 | 20 | 0.0 | 1.7 | 0.00 | 0.00 | 0.00 | 85 | 1014.6 |
| 20260502122207 | 48 | 250 | 1.7 | 3.5 | 0.00 | 0.00 | 0.00 | 84 | 1014.7 |
| 20260502121705 | 48 | 16 | 0.0 | 2.6 | 0.00 | 0.00 | 0.00 | 83 | 1014.6 |
| 20260502121203 | 48 | 72 | 0.9 | 1.7 | 0.00 | 0.00 | 0.00 | 83 | 1014.7 |
| 20260502120659 | 48 | 262 | 3.5 | 3.5 | 0.00 | 0.00 | 0.00 | 83 | 1014.7 |
| 20260502120155 | 48 | 340 | 1.7 | 3.5 | 0.00 | 0.00 | 0.00 | 82 | 1014.7 |
| 20260502115653 | 48 | 358 | 1.7 | 3.5 | 0.00 | 0.00 | 0.00 | 82 | 1014.5 |
| 20260502115149 | 48 | 199 | 3.5 | 5.2 | 0.00 | 0.00 | 0.00 | 82 | 1014.5 |
| 20260502114646 | 48 | 204 | 2.6 | 5.2 | 0.00 | 0.00 | 0.00 | 82 | 1014.1 |
| 20260502114143 | 48 | 345 | 1.7 | 1.7 | 0.00 | 0.00 | 0.00 | 82 | 1014.0 |
| 20260502113640 | 48 | 93 | 1.7 | 2.6 | 0.00 | 0.00 | 0.00 | 83 | 1014.1 |
| 20260502113138 | 48 | 152 | 2.6 | 3.5 | 0.00 | 0.00 | 0.00 | 83 | 1014.0 |
| 20260502112636 | 48 | 47 | 0.0 | 2.6 | 0.00 | 0.00 | 0.00 | 83 | 1014.0 |
| 20260502112133 | 47 | 356 | 0.9 | 2.6 | 0.00 | 0.00 | 0.00 | 83 | 1014.0 |
| 20260502111631 | 47 | 295 | 2.6 | 2.6 | 0.00 | 0.00 | 0.00 | 85 | 1014.0 |
| 20260502111128 | 46 | 59 | 1.7 | 1.7 | 0.00 | 0.00 | 0.00 | 85 | 1013.4 |
| 20260502110626 | 46 | 25 | 0.0 | 0.0 | 0.00 | 0.00 | 0.00 | 84 | 1013.6 |
| 20260502110123 | 46 | 28 | 0.0 | 0.9 | 0.00 | 0.00 | 0.00 | 85 | 1013.6 |
| 20260502105620 | 46 | 21 | 0.0 | 0.0 | 0.00 | 0.00 | 0.00 | 85 | 1013.8 |
| 20260502105117 | 46 | 23 | 0.0 | 0.0 | 0.00 | 0.00 | 0.00 | 85 | 1013.9 |
| 20260502104614 | 46 | 17 | 0.0 | 0.0 | 0.00 | 0.00 | 0.00 | 85 | 1013.7 |
| 20260502104112 | 46 | 22 | 0.0 | 0.9 | 0.00 | 0.00 | 0.00 | 85 | 1013.7 |
| 20260502103609 | 46 | 19 | 0.0 | 0.0 | 0.00 | 0.00 | 0.00 | 85 | 1013.7 |
| 20260502103108 | 45 | 45 | 0.0 | 1.7 | 0.00 | 0.00 | 0.00 | 84 | 1013.7 |
| 20260502102603 | 45 | 31 | 0.0 | 1.7 | 0.00 | 0.00 | 0.00 | 84 | 1013.6 |
| 20260502102100 | 45 | 17 | 0.0 | 0.0 | 0.00 | 0.00 | 0.00 | 84 | 1013.7 |
| 20260502101558 | 45 | 221 | 1.7 | 2.6 | 0.00 | 0.00 | 0.00 | 84 | 1013.9 |
| 20260502101057 | 45 | 38 | 0.9 | 0.9 | 0.00 | 0.00 | 0.00 | 84 | 1013.3 |
| 20260502100555 | 45 | 46 | 0.9 | 1.7 | 0.00 | 0.00 | 0.00 | 84 | 1013.6 |
| 20260502091529 | 45 | 26 | 0.0 | 1.7 | 0.00 | 0.00 | 0.00 | 83 | 1013.3 |
| 20260502091027 | 45 | 45 | 1.7 | 2.6 | 0.00 | 0.00 | 0.00 | 84 | 1013.3 |
| 20260502090523 | 45 | 356 | 0.9 | 2.6 | 0.00 | 0.00 | 0.00 | 83 | 1013.5 |
| 20260502071418 | 46 | 42 | 0.9 | 1.7 | 0.00 | 0.00 | 0.00 | 76 | 1013.5 |
| 20260502070916 | 46 | 61 | 0.9 | 1.7 | 0.00 | 0.00 | 0.00 | 76 | 1013.3 |
| 20260502070414 | 46 | 332 | 0.9 | 2.6 | 0.00 | 0.00 | 0.00 | 76 | 1013.6 |
| 20260502065912 | 46 | 7 | 1.7 | 1.7 | 0.00 | 0.00 | 0.00 | 76 | 1013.2 |
| 20260502065410 | 47 | 140 | 1.7 | 2.6 | 0.00 | 0.00 | 0.00 | 75 | 1013.4 |
| 20260502064908 | 47 | 299 | 1.7 | 1.7 | 0.00 | 0.00 | 0.00 | 75 | 1013.2 |
| 20260502064406 | 47 | 27 | 0.9 | 2.6 | 0.00 | 0.00 | 0.00 | 75 | 1013.6 |
| 20260502063903 | 47 | 144 | 1.7 | 1.7 | 0.00 | 0.00 | 0.00 | 74 | 1013.5 |
| 20260502063400 | 47 | 26 | 0.0 | 1.7 | 0.00 | 0.00 | 0.00 | 74 | 1013.4 |
| 20260502062858 | 47 | 356 | 1.7 | 3.5 | 0.00 | 0.00 | 0.00 | 74 | 1013.6 |
| 20260502062355 | 47 | 64 | 2.6 | 2.6 | 0.00 | 0.00 | 0.00 | 73 | 1013.8 |
| 20260502061854 | 47 | 73 | 1.7 | 2.6 | 0.00 | 0.00 | 0.00 | 73 | 1013.8 |
| 20260502061351 | 48 | 3 | 0.9 | 1.7 | 0.00 | 0.00 | 0.00 | 73 | 1013.9 |
| 20260502060846 | 48 | 233 | 3.5 | 3.5 | 0.00 | 0.00 | 0.00 | 73 | 1013.7 |
| 20260502060342 | 48 | 137 | 0.0 | 1.7 | 0.00 | 0.00 | 0.00 | 73 | 1013.8 |
| 20260502055839 | 47 | 14 | 0.9 | 5.2 | 0.00 | 0.00 | 0.00 | 73 | 1013.9 |
| 20260502055338 | 48 | 42 | 1.7 | 1.7 | 0.00 | 0.00 | 0.00 | 73 | 1014.0 |
| 20260502054837 | 48 | 50 | 1.7 | 2.6 | 0.00 | 0.00 | 0.00 | 72 | 1013.8 |
| 20260502054334 | 47 | 98 | 0.9 | 1.7 | 0.00 | 0.00 | 0.00 | 72 | 1013.9 |
| 20260502053831 | 47 | 110 | 0.9 | 5.2 | 0.00 | 0.00 | 0.00 | 72 | 1013.8 |
| 20260502053328 | 47 | 41 | 0.9 | 2.6 | 0.00 | 0.00 | 0.00 | 72 | 1013.9 |
| 20260502052826 | 47 | 167 | 2.6 | 2.6 | 0.00 | 0.00 | 0.00 | 72 | 1013.9 |
| 20260502052324 | 47 | 116 | 1.7 | 5.2 | 0.00 | 0.00 | 0.00 | 72 | 1013.8 |
| 20260502051821 | 47 | 21 | 0.0 | 1.7 | 0.00 | 0.00 | 0.00 | 71 | 1013.8 |
| 20260502051320 | 47 | 28 | 1.7 | 1.7 | 0.00 | 0.00 | 0.00 | 71 | 1013.9 |
| 20260502050816 | 47 | 21 | 0.9 | 1.7 | 0.00 | 0.00 | 0.00 | 71 | 1014.0 |
| 20260502050312 | 47 | 347 | 1.7 | 1.7 | 0.00 | 0.00 | 0.00 | 71 | 1014.1 |
| 20260502045810 | 47 | 327 | 1.7 | 1.7 | 0.00 | 0.00 | 0.00 | 71 | 1013.9 |
| 20260502045306 | 48 | 332 | 0.9 | 2.6 | 0.00 | 0.00 | 0.00 | 70 | 1014.0 |
| 20260502044803 | 48 | 40 | 1.7 | 2.6 | 0.00 | 0.00 | 0.00 | 70 | 1013.8 |
| 20260502044259 | 48 | 40 | 0.9 | 1.7 | 0.00 | 0.00 | 0.00 | 69 | 1013.8 |
| 20260502043757 | 48 | 26 | 0.0 | 1.7 | 0.00 | 0.00 | 0.00 | 69 | 1013.9 |
| 20260502043254 | 48 | 359 | 0.9 | 1.7 | 0.00 | 0.00 | 0.00 | 69 | 1014.0 |
| 20260502042753 | 48 | 19 | 0.9 | 3.5 | 0.00 | 0.00 | 0.00 | 69 | 1014.2 |
| 20260502042251 | 48 | 152 | 3.5 | 5.2 | 0.00 | 0.00 | 0.00 | 70 | 1014.1 |
| 20260502041748 | 47 | 354 | 0.9 | 3.5 | 0.00 | 0.00 | 0.00 | 70 | 1013.8 |
| 20260502041246 | 47 | 46 | 0.9 | 1.7 | 0.00 | 0.00 | 0.00 | 71 | 1013.9 |
| 20260502040742 | 48 | 163 | 2.6 | 2.6 | 0.00 | 0.00 | 0.00 | 69 | 1014.2 |
| 20260502040239 | 48 | 48 | 0.9 | 3.5 | 0.00 | 0.00 | 0.00 | 69 | 1014.0 |
| 20260502035735 | 48 | 37 | 0.9 | 1.7 | 0.00 | 0.00 | 0.00 | 68 | 1014.0 |
| 20260502035232 | 48 | 45 | 0.9 | 1.7 | 0.00 | 0.00 | 0.00 | 68 | 1014.2 |
| 20260502034730 | 48 | 236 | 1.7 | 3.5 | 0.00 | 0.00 | 0.00 | 68 | 1014.0 |
| 20260502034228 | 49 | 129 | 3.5 | 3.5 | 0.00 | 0.00 | 0.00 | 67 | 1014.0 |
| 20260502033725 | 49 | 22 | 1.7 | 3.5 | 0.00 | 0.00 | 0.00 | 66 | 1014.2 |
| 20260502033223 | 49 | 60 | 1.7 | 2.6 | 0.00 | 0.00 | 0.00 | 65 | 1014.3 |
| 20260502032720 | 49 | 44 | 0.9 | 1.7 | 0.00 | 0.00 | 0.00 | 65 | 1014.0 |
| 20260502032215 | 49 | 14 | 0.0 | 1.7 | 0.00 | 0.00 | 0.00 | 64 | 1014.0 |
| 20260502031714 | 49 | 242 | 3.5 | 5.2 | 0.00 | 0.00 | 0.00 | 64 | 1014.1 |
| 20260502031211 | 49 | 56 | 1.7 | 2.6 | 0.00 | 0.00 | 0.00 | 63 | 1014.0 |
| 20260502030710 | 49 | 184 | 3.5 | 3.5 | 0.00 | 0.00 | 0.00 | 62 | 1014.1 |
| 20260502030208 | 49 | 20 | 0.0 | 0.9 | 0.00 | 0.00 | 0.00 | 62 | 1014.3 |
| 20260502025704 | 49 | 88 | 1.7 | 1.7 | 0.00 | 0.00 | 0.00 | 62 | 1014.1 |
| 20260502025202 | 50 | 26 | 0.9 | 1.7 | 0.00 | 0.00 | 0.00 | 60 | 1014.0 |
| 20260502024700 | 50 | 39 | 1.7 | 2.6 | 0.00 | 0.00 | 0.00 | 59 | 1013.9 |
| 20260502024158 | 50 | 345 | 1.7 | 2.6 | 0.00 | 0.00 | 0.00 | 59 | 1013.9 |
| 20260502023656 | 50 | 24 | 0.9 | 1.7 | 0.00 | 0.00 | 0.00 | 58 | 1013.9 |
| 20260502023153 | 50 | 74 | 1.7 | 2.6 | 0.00 | 0.00 | 0.00 | 57 | 1014.2 |
| 20260502022649 | 50 | 112 | 0.0 | 2.6 | 0.00 | 0.00 | 0.00 | 57 | 1013.9 |
| 20260502022146 | 50 | 92 | 0.9 | 1.7 | 0.00 | 0.00 | 0.00 | 56 | 1014.0 |
| 20260502021644 | 50 | 245 | 1.7 | 2.6 | 0.00 | 0.00 | 0.00 | 57 | 1014.0 |
| 20260502021141 | 50 | 186 | 3.5 | 3.5 | 0.00 | 0.00 | 0.00 | 55 | 1014.3 |
| 20260502020638 | 50 | 22 | 0.0 | 2.6 | 0.00 | 0.00 | 0.00 | 55 | 1014.1 |
| 20260502020135 | 49 | 5 | 0.9 | 2.6 | 0.00 | 0.00 | 0.00 | 54 | 1014.0 |
| 20260502015633 | 50 | 21 | 0.9 | 1.7 | 0.00 | 0.00 | 0.00 | 53 | 1014.0 |
| 20260502015129 | 50 | 175 | 2.6 | 5.2 | 0.00 | 0.00 | 0.00 | 52 | 1014.0 |
| 20260502014627 | 50 | 30 | 0.9 | 0.9 | 0.00 | 0.00 | 0.00 | 52 | 1013.7 |
| 20260502014123 | 50 | 24 | 0.0 | 1.7 | 0.00 | 0.00 | 0.00 | 52 | 1013.8 |
| 20260502013620 | 49 | 41 | 1.7 | 1.7 | 0.00 | 0.00 | 0.00 | 53 | 1013.7 |
| 20260502013115 | 49 | 19 | 0.0 | 1.7 | 0.00 | 0.00 | 0.00 | 53 | 1013.6 |
| 20260502012613 | 48 | 357 | 0.9 | 0.9 | 0.00 | 0.00 | 0.00 | 54 | 1013.8 |
| 20260502012111 | 49 | 19 | 0.0 | 0.0 | 0.00 | 0.00 | 0.00 | 53 | 1013.7 |
| 20260502011607 | 48 | 26 | 0.9 | 1.7 | 0.00 | 0.00 | 0.00 | 54 | 1013.7 |
| 20260502011103 | 48 | 10 | 0.0 | 0.0 | 0.00 | 0.00 | 0.00 | 58 | 1013.6 |
| 20260502010600 | 48 | 13 | 0.0 | 0.0 | 0.00 | 0.00 | 0.00 | 54 | 1013.5 |
| 20260502010056 | 48 | 24 | 0.0 | 2.6 | 0.00 | 0.00 | 0.00 | 56 | 1013.6 |
| 20260502005555 | 48 | 3 | 0.0 | 0.0 | 0.00 | 0.00 | 0.00 | 57 | 1013.4 |
| 20260502005052 | 49 | 3 | 0.0 | 0.0 | 0.00 | 0.00 | 0.00 | 56 | 1013.3 |
| 20260502004547 | 49 | 3 | 0.0 | 0.0 | 0.00 | 0.00 | 0.00 | 53 | 1013.2 |
| 20260502004044 | 49 | 3 | 0.0 | 0.0 | 0.00 | 0.00 | 0.00 | 53 | 1013.0 |
| 20260502003543 | 49 | 3 | 0.0 | 0.0 | 0.00 | 0.00 | 0.00 | 52 | 1013.2 |
| 20260502003039 | 50 | 3 | 0.0 | 0.0 | 0.00 | 0.00 | 0.00 | 51 | 1012.9 |
| 20260502002536 | 50 | 3 | 0.0 | 0.0 | 0.00 | 0.00 | 0.00 | 49 | 1012.8 |
| 20260502002033 | 50 | 3 | 0.0 | 0.0 | 0.00 | 0.00 | 0.00 | 50 | 1012.8 |
| 20260502001531 | 51 | 2 | 0.0 | 0.9 | 0.00 | 0.00 | 0.00 | 49 | 1012.8 |
| 20260502001028 | 51 | 4 | 0.9 | 0.9 | 0.00 | 0.00 | 0.00 | 48 | 1012.8 |
| 20260502000526 | 51 | 11 | 0.0 | 0.9 | 0.00 | 0.00 | 0.00 | 47 | 1012.5 |
| 20260502000023 | 52 | 14 | 0.0 | 0.9 | 0.00 | 0.00 | 0.00 | 49 | 1012.5 |
| 20260501235518 | 52 | 15 | 0.0 | 0.9 | 0.00 | 0.00 | 0.00 | 45 | 1012.4 |
| 20260501235014 | 53 | 15 | 0.0 | 0.0 | 0.00 | 0.00 | 0.00 | 44 | 1012.3 |
| 20260501234510 | 54 | 15 | 0.0 | 0.0 | 0.00 | 0.00 | 0.00 | 43 | 1012.3 |
| 20260501234009 | 55 | 15 | 0.0 | 0.9 | 0.00 | 0.00 | 0.00 | 42 | 1012.4 |
| 20260501233506 | 56 | 17 | 0.0 | 0.9 | 0.00 | 0.00 | 0.00 | 39 | 1012.3 |
| 20260501233002 | 56 | 6 | 1.7 | 2.6 | 0.00 | 0.00 | 0.00 | 38 | 1012.1 |
| 20260501232459 | 57 | 20 | 0.0 | 0.0 | 0.00 | 0.00 | 0.00 | 39 | 1012.0 |
| 20260501231956 | 57 | 16 | 0.0 | 0.0 | 0.00 | 0.00 | 0.00 | 37 | 1012.0 |
| 20260501231455 | 58 | 16 | 0.0 | 0.9 | 0.00 | 0.00 | 0.00 | 35 | 1012.0 |
| 20260501230952 | 58 | 18 | 0.9 | 1.7 | 0.00 | 0.00 | 0.00 | 34 | 1011.9 |
| 20260501230451 | 59 | 356 | 0.9 | 1.7 | 0.00 | 0.00 | 0.00 | 34 | 1011.6 |
| 20260501225948 | 60 | 357 | 0.9 | 3.5 | 0.00 | 0.00 | 0.00 | 31 | 1011.7 |
| 20260501225446 | 62 | 37 | 1.7 | 2.6 | 0.00 | 0.00 | 0.00 | 31 | 1011.6 |
| 20260501224941 | 62 | 22 | 0.9 | 2.6 | 0.00 | 0.00 | 0.00 | 31 | 1011.7 |
| 20260501224439 | 60 | 19 | 0.0 | 2.6 | 0.00 | 0.00 | 0.00 | 34 | 1011.6 |
| 20260501223936 | 60 | 14 | 1.7 | 5.2 | 0.00 | 0.00 | 0.00 | 32 | 1011.5 |
| 20260501223432 | 60 | 357 | 1.7 | 6.1 | 0.00 | 0.00 | 0.00 | 32 | 1011.6 |
| 20260501222927 | 60 | 148 | 3.5 | 7.0 | 0.00 | 0.00 | 0.00 | 31 | 1011.6 |
| 20260501222425 | 61 | 342 | 1.7 | 7.8 | 0.00 | 0.00 | 0.00 | 31 | 1011.6 |
| 20260501221921 | 62 | 301 | 3.5 | 5.2 | 0.00 | 0.00 | 0.00 | 30 | 1011.4 |
| 20260501221419 | 62 | 273 | 3.5 | 6.1 | 0.00 | 0.00 | 0.00 | 30 | 1011.5 |
| 20260501220916 | 62 | 342 | 2.6 | 3.5 | 0.00 | 0.00 | 0.00 | 32 | 1011.4 |
| 20260501220414 | 62 | 2 | 1.7 | 2.6 | 0.00 | 0.00 | 0.00 | 30 | 1011.5 |
| 20260501215909 | 62 | 18 | 0.0 | 6.1 | 0.00 | 0.00 | 0.00 | 30 | 1011.5 |
| 20260501215407 | 62 | 53 | 1.7 | 3.5 | 0.00 | 0.00 | 0.00 | 28 | 1011.4 |
| 20260501214903 | 61 | 261 | 0.9 | 2.6 | 0.00 | 0.00 | 0.00 | 30 | 1011.3 |
| 20260501214403 | 61 | 281 | 3.5 | 6.1 | 0.00 | 0.00 | 0.00 | 29 | 1011.4 |
| 20260501213858 | 61 | 301 | 6.1 | 11.3 | 0.00 | 0.00 | 0.00 | 29 | 1011.3 |